• In Hungary
  • List of Countries
  • For 7 days
  • Water Temperature
  • Satellite Maps
  • Weather Map
  • News
  • Weather Widgets
  • user-avatar
    Login

    Hourly Weather Szekszard

    Today, 25 November, Saturday

    Time Temperature Precipitation Wind Pressure Humidity
    00:00 +6°C° 0 mm 1 mps 756 mmHg 88%
    01:00 +5°C° 0 mm 2 mps 756 mmHg 89%
    02:00 +5°C° 0 mm 2 mps 755 mmHg 90%
    03:00 +5°C° 0 mm 2 mps 755 mmHg 90%
    04:00 +5°C° 0 mm 2 mps 755 mmHg 91%
    05:00 +5°C° 0 mm 2 mps 754 mmHg 91%
    06:00 +5°C° 0 mm 2 mps 754 mmHg 92%
    07:00 +5°C° 0 mm 2 mps 754 mmHg 93%
    08:00 +7°C° 0 mm 3 mps 754 mmHg 87%
    09:00 +8°C° 0 mm 3 mps 753 mmHg 81%
    10:00 +10°C° 0 mm 4 mps 753 mmHg 75%
    11:00 +11°C° 0 mm 4 mps 753 mmHg 69%
    12:00 +12°C° 0 mm 5 mps 752 mmHg 63%
    13:00 +13°C° 0 mm 5 mps 751 mmHg 57%
    14:00 +13°C° 0 mm 5 mps 751 mmHg 59%
    15:00 +12°C° 0 mm 4 mps 751 mmHg 61%
    16:00 +11°C° 0 mm 4 mps 750 mmHg 63%
    17:00 +11°C° 0 mm 4 mps 750 mmHg 64%
    18:00 +10°C° 0 mm 4 mps 750 mmHg 66%
    19:00 +10°C° 0 mm 4 mps 750 mmHg 67%
    20:00 +10°C° 0.5 mm 3 mps 750 mmHg 71%
    21:00 +10°C° 0.5 mm 3 mps 750 mmHg 75%
    22:00 +10°C° 0.5 mm 3 mps 750 mmHg 78%
    23:00 +9°C° 1.3 mm 2 mps 751 mmHg 81%

    Tomorrow, 26 November, Sunday

    Time Temperature Precipitation Wind Pressure Humidity
    00:00 +9°C° 1.3 mm 2 mps 751 mmHg 83%
    01:00 +9°C° 1.3 mm 2 mps 751 mmHg 86%
    02:00 +9°C° 1.7 mm 3 mps 751 mmHg 87%
    03:00 +8°C° 1.7 mm 3 mps 750 mmHg 88%
    04:00 +7°C° 1.7 mm 4 mps 750 mmHg 88%
    05:00 +7°C° 1.3 mm 5 mps 750 mmHg 86%
    06:00 +7°C° 1.3 mm 6 mps 751 mmHg 84%
    07:00 +5°C° 1.3 mm 6 mps 751 mmHg 82%
    08:00 +5°C° 0.8 mm 7 mps 751 mmHg 79%
    09:00 +5°C° 0.8 mm 7 mps 752 mmHg 77%
    10:00 +5°C° 0.8 mm 8 mps 752 mmHg 74%
    11:00 +5°C° 0.4 mm 8 mps 752 mmHg 73%
    12:00 +5°C° 0.4 mm 8 mps 753 mmHg 72%
    13:00 +5°C° 0.4 mm 7 mps 753 mmHg 71%
    14:00 +5°C° 0.2 mm 7 mps 753 mmHg 72%
    15:00 +5°C° 0.2 mm 7 mps 753 mmHg 73%
    16:00 +5°C° 0.2 mm 7 mps 754 mmHg 74%
    17:00 +5°C° 0.1 mm 7 mps 754 mmHg 71%
    18:00 +5°C° 0.1 mm 8 mps 755 mmHg 69%
    19:00 +4°C° 0.1 mm 8 mps 755 mmHg 66%
    20:00 +4°C° 0 mm 8 mps 756 mmHg 65%
    21:00 +4°C° 0 mm 8 mps 756 mmHg 64%
    22:00 +2°C° 0 mm 8 mps 756 mmHg 63%
    23:00 +2°C° 0 mm 8 mps 757 mmHg 63%

    Day after tomorrow, 27 November, Monday

    Time Temperature Precipitation Wind Pressure Humidity
    00:00 +1°C° 0 mm 8 mps 757 mmHg 64%
    01:00 +1°C° 0 mm 8 mps 758 mmHg 64%
    02:00 +1°C° 0 mm 8 mps 758 mmHg 65%
    03:00 0°C° 0 mm 8 mps 758 mmHg 66%
    04:00 0°C° 0 mm 7 mps 758 mmHg 67%
    05:00 0°C° 0 mm 7 mps 758 mmHg 68%
    06:00 -1°C° 0 mm 7 mps 759 mmHg 69%
    07:00 -1°C° 0 mm 6 mps 759 mmHg 70%
    08:00 0°C° 0 mm 7 mps 760 mmHg 68%
    09:00 +2°C° 0 mm 7 mps 760 mmHg 65%
    10:00 +2°C° 0 mm 7 mps 760 mmHg 63%
    11:00 +3°C° 0 mm 7 mps 760 mmHg 60%
    12:00 +3°C° 0 mm 7 mps 759 mmHg 58%
    13:00 +4°C° 0 mm 7 mps 759 mmHg 56%
    14:00 +3°C° 0 mm 6 mps 759 mmHg 59%
    15:00 +3°C° 0 mm 5 mps 759 mmHg 62%
    16:00 +3°C° 0 mm 4 mps 759 mmHg 65%
    17:00 +3°C° 0 mm 4 mps 759 mmHg 67%
    18:00 +1°C° 0 mm 4 mps 759 mmHg 69%
    19:00 +1°C° 0 mm 4 mps 759 mmHg 71%
    20:00 0°C° 0 mm 4 mps 759 mmHg 73%
    21:00 0°C° 0 mm 4 mps 759 mmHg 74%
    22:00 +1°C° 0 mm 3 mps 759 mmHg 75%
    23:00 0°C° 0 mm 3 mps 759 mmHg 76%

    28 November, Tuesday

    Time Temperature Precipitation Wind Pressure Humidity
    00:00 0°C° 0 mm 3 mps 758 mmHg 76%
    01:00 0°C° 0 mm 3 mps 758 mmHg 77%
    02:00 -1°C° 0 mm 3 mps 758 mmHg 78%
    03:00 -1°C° 0 mm 3 mps 758 mmHg 80%
    04:00 -1°C° 0 mm 2 mps 757 mmHg 81%
    05:00 -1°C° 0 mm 2 mps 757 mmHg 81%
    06:00 -1°C° 0 mm 2 mps 757 mmHg 81%
    07:00 -2°C° 0 mm 2 mps 757 mmHg 81%
    08:00 +1°C° 0 mm 2 mps 757 mmHg 75%
    09:00 +1°C° 0 mm 3 mps 757 mmHg 69%
    10:00 +2°C° 0 mm 3 mps 757 mmHg 63%
    11:00 +3°C° 0 mm 3 mps 756 mmHg 59%
    12:00 +4°C° 0 mm 3 mps 755 mmHg 55%
    13:00 +4°C° 0 mm 3 mps 755 mmHg 51%
    14:00 +5°C° 0 mm 2 mps 754 mmHg 55%
    15:00 +4°C° 0 mm 2 mps 754 mmHg 58%
    16:00 +4°C° 0 mm 1 mps 753 mmHg 62%
    17:00 +3°C° 0 mm 1 mps 753 mmHg 64%
    18:00 +3°C° 0 mm 1 mps 753 mmHg 67%
    19:00 +2°C° 0 mm 1 mps 753 mmHg 70%
    20:00 +2°C° 0 mm 1 mps 753 mmHg 71%
    21:00 +1°C° 0 mm 2 mps 752 mmHg 72%
    22:00 -1°C° 0 mm 2 mps 752 mmHg 73%
    23:00 -1°C° 0 mm 2 mps 752 mmHg 73%

    29 November, Wednesday

    Time Temperature Precipitation Wind Pressure Humidity
    00:00 -1°C° 0 mm 2 mps 751 mmHg 74%
    01:00 -1°C° 0 mm 2 mps 751 mmHg 74%
    02:00 -1°C° 0 mm 3 mps 751 mmHg 74%
    03:00 -1°C° 0 mm 3 mps 750 mmHg 74%
    04:00 -1°C° 0 mm 3 mps 750 mmHg 75%
    05:00 -1°C° 0 mm 3 mps 750 mmHg 75%
    06:00 -1°C° 0 mm 3 mps 750 mmHg 75%
    07:00 -2°C° 0 mm 4 mps 750 mmHg 75%
    08:00 -1°C° 0 mm 4 mps 750 mmHg 68%
    09:00 0°C° 0 mm 4 mps 750 mmHg 62%
    10:00 +2°C° 0 mm 5 mps 750 mmHg 55%
    11:00 +3°C° 0 mm 5 mps 750 mmHg 51%
    12:00 +5°C° 0 mm 4 mps 749 mmHg 47%
    13:00 +6°C° 0 mm 4 mps 749 mmHg 44%
    14:00 +5°C° 0 mm 4 mps 749 mmHg 47%
    15:00 +5°C° 0 mm 4 mps 749 mmHg 51%
    16:00 +4°C° 0 mm 3 mps 749 mmHg 54%
    17:00 +3°C° 0 mm 3 mps 749 mmHg 57%
    18:00 +3°C° 0 mm 3 mps 749 mmHg 60%
    19:00 +3°C° 0 mm 3 mps 749 mmHg 63%
    20:00 +3°C° 0 mm 3 mps 749 mmHg 65%
    21:00 +3°C° 0 mm 3 mps 749 mmHg 67%
    22:00 +3°C° 0 mm 3 mps 748 mmHg 69%
    23:00 +3°C° 0 mm 3 mps 748 mmHg 69%

    30 November, Thursday

    Time Temperature Precipitation Wind Pressure Humidity
    00:00 +3°C° 0 mm 4 mps 747 mmHg 69%
    01:00 +3°C° 0 mm 4 mps 746 mmHg 70%
    02:00 +2°C° 1.5 mm 5 mps 745 mmHg 74%
    03:00 +2°C° 1.5 mm 6 mps 744 mmHg 78%
    04:00 +2°C° 1.5 mm 7 mps 743 mmHg 82%
    05:00 +3°C° 1.8 mm 7 mps 743 mmHg 83%
    06:00 +3°C° 1.8 mm 7 mps 742 mmHg 84%
    07:00 +3°C° 1.8 mm 7 mps 741 mmHg 86%
    08:00 +4°C° 0.9 mm 7 mps 741 mmHg 83%
    09:00 +5°C° 0.9 mm 6 mps 741 mmHg 81%
    10:00 +5°C° 0.9 mm 6 mps 741 mmHg 79%
    11:00 +6°C° 0.8 mm 5 mps 741 mmHg 82%
    12:00 +6°C° 0.8 mm 5 mps 741 mmHg 84%
    13:00 +6°C° 0.8 mm 4 mps 741 mmHg 87%
    14:00 +6°C° 0.5 mm 4 mps 742 mmHg 87%
    15:00 +5°C° 0.5 mm 4 mps 742 mmHg 86%
    16:00 +4°C° 0.5 mm 4 mps 743 mmHg 86%
    17:00 +3°C° 0.2 mm 5 mps 743 mmHg 84%
    18:00 +3°C° 0.2 mm 5 mps 744 mmHg 83%
    19:00 +2°C° 0.2 mm 5 mps 744 mmHg 81%
    20:00 +2°C° 0.6 mm 5 mps 744 mmHg 80%
    21:00 +2°C° 0.6 mm 6 mps 745 mmHg 79%
    22:00 +2°C° 0.6 mm 6 mps 745 mmHg 78%
    23:00 +2°C° 0.4 mm 6 mps 745 mmHg 77%
    Show more